sat.trackr.live / text

‹ back to catalog

STARLINK-37859

NORAD 69553 · 2026-135H

PAYLOAD ACTIVE UNKNOWN

§ Identity

Operator
Country
US
Launch date
2026-06-15
Launch site
AFWTR
Launch vehicle
Mass (kg)
RCS (m²)

Purposes: comms

External: N2YO · Heavens-Above · Gunter

§ Orbital elements

Epoch: 2026-09-20T00:15:33.323040Z

Period
93.91 min
Inclination
97.2838°
Eccentricity
0.0002711
Mean motion
15.33453331 rev/d
Perigee alt
463.7 km
Apogee alt
467.4 km
Semi-major
6,843.7 km
B*
3.4651e-4
RAAN
290.6796°
Arg perigee
299.7274°
Mean anomaly
60.3699°
Rev number
1,492

§ Raw data

STARLINK-378591 69553U 26135H   26263.01080235  .00011132  00000+0  34651-3 0  99922 69553  97.2838 290.6796 0002711 299.7274  60.3699 15.33453331 14927

JSON: /api/v1/satellites/69553 · /tle

For live sub-satellite position, see the globe view (requires WebGL).

§ Visibility from observer

Set your observer location to see the next 7 days of passes ≥ 10°. The values pass through the URL so the page stays shareable.

No JS? Fill the form by hand. The geolocation button needs JavaScript.